Weather History for KANK - February, 2014

Change the Weather History Date:

Friday, February 7, 2014

  Actual Average (KGUC) Record (KGUC)
Temperature  
Mean Temperature 30 °F -  
Max Temperature 37 °F 24 °F 44 °F (2007)
Min Temperature 24 °F 0 °F -20 °F (2004)
Degree Days  
Heating Degree Days 34    
Moisture  
Dew Point 15 °F    
Average Humidity 54    
Maximum Humidity 70    
Minimum Humidity 41    
Precipitation  
Precipitation 0.00 in - - ()
Sea Level Pressure  
Sea Level Pressure 29.90 in    
Wind  
Wind Speed 12 mph (SW)    
Max Wind Speed 20 mph    
Max Gust Speed 36 mph    
Visibility 10 miles    
Events      
Averages and records for this station are not official NWS values.
T = Trace of Precipitation, MM = Missing Value Source: NWS Daily Summary

Daily Weather History Graph

Daily Weather History Graph

Search for Another Location

Airport or City:

Trip Planner

Search our weather history database for the weather conditions in past years. The results will help you decide how hot, cold, wet, or windy it might be!

Date:

Astronomy

Feb. 07, 2014 Rise Set
Actual Time 7:03 AM MST 5:33 PM MST
Civil Twilight 6:36 AM MST 6:00 PM MST
Nautical Twilight 6:04 AM MST 6:32 PM MST
Astronomical Twilight 5:33 AM MST 7:03 PM MST
Moon 11:47 AM MST (2/7) 1:21 AM MST (2/7)
Length of Visible Light 11h 24m
Length of Day
10h 29m
First Quarter, 60% of the Moon is Illuminated
Feb 7
First Quarter
Feb 14
Full
Feb 22
Last Quarter
Mar 1
New
Mar 8
First Quarter

Hourly Weather History & Observations

Time (MST) Temp. Windchill Dew Point Humidity Pressure Visibility Wind Dir Wind Speed Gust Speed Precip Events Conditions
12:15 AM 27.3 °F 17.1 °F 13.8 °F 57% 29.86 in 10.0 mi SW 11.5 mph 19.6 mph N/A   Clear
12:35 AM 26.8 °F 17.1 °F 13.5 °F 57% 29.85 in 10.0 mi SW 10.4 mph 20.7 mph N/A   Clear
12:55 AM 27.3 °F 17.7 °F 12.9 °F 55% 29.85 in 10.0 mi WSW 10.4 mph 19.6 mph N/A   Clear
1:15 AM 26.4 °F 15.0 °F 13.1 °F 57% 29.86 in 10.0 mi SSW 13.8 mph 19.6 mph N/A   Clear
1:35 AM 26.6 °F 16.2 °F 12.7 °F 56% 29.85 in 10.0 mi SSW 11.5 mph 19.6 mph N/A   Scattered Clouds
1:55 AM 26.6 °F 14.3 °F 12.9 °F 56% 29.85 in 10.0 mi SSW 16.1 mph 23.0 mph N/A   Clear
2:15 AM 25.5 °F 15.5 °F 12.7 °F 58% 29.85 in 10.0 mi SSW 10.4 mph 21.9 mph N/A   Clear
2:35 AM 25.7 °F 14.0 °F 12.6 °F 58% 29.85 in 10.0 mi SSW 13.8 mph 20.7 mph N/A   Clear
2:55 AM 24.6 °F 13.2 °F 12.6 °F 60% 29.85 in 10.0 mi SSW 12.7 mph 21.9 mph N/A   Mostly Cloudy
3:15 AM 24.6 °F 14.4 °F 12.2 °F 59% 29.85 in 10.0 mi SSW 10.4 mph 18.4 mph N/A   Overcast
3:35 AM 25.0 °F 15.5 °F 12.7 °F 60% 29.85 in 10.0 mi SW 9.2 mph 18.4 mph N/A   Overcast
3:55 AM 25.5 °F 13.8 °F 13.3 °F 60% 29.85 in 10.0 mi SSW 13.8 mph 23.0 mph N/A   Overcast
4:15 AM 25.2 °F 15.1 °F 14.0 °F 63% 29.85 in 10.0 mi SSW 10.4 mph 20.7 mph N/A   Scattered Clouds
4:35 AM 25.3 °F 16.0 °F 14.0 °F 62% 29.85 in 10.0 mi SW 9.2 mph 21.9 mph N/A   Mostly Cloudy
4:55 AM 25.3 °F 14.1 °F 14.4 °F 63% 29.85 in 10.0 mi WSW 12.7 mph 20.7 mph N/A   Overcast
5:15 AM 25.3 °F 14.7 °F 14.4 °F 63% 29.85 in 10.0 mi WSW 11.5 mph 16.1 mph N/A   Overcast
5:35 AM 25.5 °F 15.5 °F 14.4 °F 63% 29.86 in 10.0 mi WSW 10.4 mph 18.4 mph N/A   Overcast
5:55 AM 25.7 °F 15.1 °F 14.0 °F 61% 29.85 in 10.0 mi SW 11.5 mph 20.7 mph N/A   Overcast
6:15 AM 26.1 °F 14.0 °F 13.6 °F 59% 29.86 in 10.0 mi WSW 15.0 mph 20.7 mph N/A   Overcast
6:35 AM 26.2 °F 14.2 °F 13.6 °F 59% 29.86 in 10.0 mi SW 15.0 mph 20.7 mph N/A   Overcast
6:55 AM 25.7 °F 13.1 °F 13.8 °F 61% 29.87 in 10.0 mi SW 16.1 mph 20.7 mph N/A   Overcast
7:15 AM 25.7 °F 17.1 °F 13.8 °F 61% 29.87 in 10.0 mi WSW 8.1 mph 23.0 mph N/A   Mostly Cloudy
7:35 AM 26.4 °F 14.5 °F 13.8 °F 59% 29.88 in 10.0 mi WSW 15.0 mph 20.7 mph N/A   Scattered Clouds
7:55 AM 27.5 °F 16.3 °F 14.4 °F 58% 29.87 in 10.0 mi SSW 13.8 mph 21.9 mph N/A   Scattered Clouds
8:15 AM 28.8 °F 17.9 °F 14.7 °F 56% 29.88 in 10.0 mi SSW 13.8 mph 20.7 mph N/A   Clear
8:35 AM 29.3 °F 18.2 °F 14.5 °F 54% 29.88 in 10.0 mi SSW 15.0 mph 25.3 mph N/A   Clear
8:55 AM 30.7 °F 20.9 °F 15.3 °F 53% 29.88 in 10.0 mi SW 12.7 mph 24.2 mph N/A   Mostly Cloudy
9:15 AM 31.3 °F 20.3 °F 15.4 °F 52% 29.89 in 10.0 mi SSW 16.1 mph 21.9 mph N/A   Overcast
9:35 AM 32.5 °F 22.7 °F 16.0 °F 51% 29.89 in 10.0 mi SW 13.8 mph 20.7 mph N/A   Mostly Cloudy
9:55 AM 33.8 °F 24.8 °F 16.5 °F 49% 29.90 in 10.0 mi SW 12.7 mph 20.7 mph N/A   Mostly Cloudy
10:15 AM 33.3 °F 23.7 °F 16.3 °F 50% 29.90 in 10.0 mi SW 13.8 mph 23.0 mph N/A   Overcast
10:35 AM 34.0 °F 25.0 °F 16.9 °F 50% 29.90 in 10.0 mi SSW 12.7 mph 21.9 mph N/A   Mostly Cloudy
10:55 AM 34.5 °F 25.7 °F 16.2 °F 47% 29.88 in 10.0 mi SSW 12.7 mph 19.6 mph N/A   Scattered Clouds
11:15 AM 34.7 °F 25.9 °F 16.7 °F 48% 29.88 in 10.0 mi SSW 12.7 mph 20.7 mph N/A   Mostly Cloudy
11:35 AM 32.9 °F 23.7 °F 16.7 °F 51% 29.88 in 10.0 mi SW 12.7 mph 17.3 mph N/A   Mostly Cloudy
11:55 AM 33.3 °F 24.1 °F 19.0 °F 56% 29.88 in 10.0 mi SSW 12.7 mph 21.9 mph N/A   Scattered Clouds
12:15 PM 33.4 °F 27.3 °F 18.1 °F 54% 29.87 in 10.0 mi SSW 6.9 mph - N/A   Mostly Cloudy
12:35 PM 35.1 °F 26.4 °F 15.6 °F 45% 29.86 in 10.0 mi SW 12.7 mph 20.7 mph N/A   Mostly Cloudy
12:55 PM 35.8 °F 26.9 °F 14.5 °F 42% 29.85 in 10.0 mi West 13.8 mph 21.9 mph N/A   Mostly Cloudy
1:15 PM 36.0 °F 25.6 °F 16.9 °F 46% 29.86 in 10.0 mi West 18.4 mph 35.7 mph N/A   Scattered Clouds
1:35 PM 37.4 °F 27.5 °F 15.8 °F 41% 29.86 in 10.0 mi WSW 18.4 mph 25.3 mph N/A   Mostly Cloudy
1:55 PM 37.4 °F 28.5 °F 16.3 °F 42% 29.86 in 10.0 mi WSW 15.0 mph 28.8 mph N/A   Mostly Cloudy
2:15 PM 36.7 °F 26.3 °F 16.2 °F 43% 29.86 in 10.0 mi West 19.6 mph 27.6 mph N/A   Overcast
2:35 PM 37.0 °F 27.4 °F 16.0 °F 42% 29.87 in 10.0 mi WSW 17.3 mph 28.8 mph N/A   Overcast
2:55 PM 35.8 °F 27.8 °F 16.2 °F 45% 29.88 in 10.0 mi West 11.5 mph 26.5 mph N/A   Mostly Cloudy
3:15 PM 36.3 °F 27.1 °F 15.1 °F 42% 29.88 in 10.0 mi West 15.0 mph 23.0 mph N/A   Clear
3:35 PM 35.6 °F 25.2 °F 14.2 °F 42% 29.88 in 10.0 mi West 18.4 mph 26.5 mph N/A   Clear
3:55 PM 34.2 °F 25.2 °F 14.4 °F 44% 29.89 in 10.0 mi West 12.7 mph 25.3 mph N/A   Clear
4:15 PM 33.6 °F 28.4 °F 15.6 °F 48% 29.89 in 10.0 mi West 5.8 mph 23.0 mph N/A   Clear
4:35 PM 32.9 °F 23.7 °F 16.7 °F 51% 29.91 in 10.0 mi West 12.7 mph 16.1 mph N/A   Scattered Clouds
4:55 PM 32.0 °F 24.2 °F 18.7 °F 58% 29.92 in 10.0 mi West 9.2 mph - N/A   Scattered Clouds
5:15 PM 32.0 °F 24.8 °F 20.3 °F 62% 29.93 in 10.0 mi West 8.1 mph - N/A   Mostly Cloudy
5:35 PM 31.1 °F 22.4 °F 22.1 °F 69% 29.94 in 10.0 mi WNW 10.4 mph - N/A   Overcast
5:55 PM 30.6 °F 23.1 °F 21.7 °F 70% 29.95 in 10.0 mi West 8.1 mph - N/A   Mostly Cloudy
6:15 PM 30.2 °F 20.8 °F 21.0 °F 69% 29.96 in 10.0 mi WSW 11.5 mph 16.1 mph N/A   Mostly Cloudy
6:35 PM 30.0 °F 21.7 °F 21.0 °F 69% 29.95 in 10.0 mi West 9.2 mph - N/A   Scattered Clouds
6:55 PM 30.0 °F 20.5 °F 19.4 °F 65% 29.96 in 10.0 mi West 11.5 mph 16.1 mph N/A   Clear
7:15 PM 30.7 °F 20.4 °F 19.6 °F 63% 29.97 in 10.0 mi West 13.8 mph 19.6 mph N/A   Mostly Cloudy
7:35 PM 30.2 °F 21.3 °F 19.4 °F 64% 29.97 in 10.0 mi WNW 10.4 mph 17.3 mph N/A   Mostly Cloudy
7:55 PM 30.2 °F 22.6 °F 19.2 °F 64% 29.97 in 10.0 mi NW 8.1 mph - N/A   Mostly Cloudy
8:15 PM 30.6 °F 23.1 °F 18.0 °F 60% 29.96 in 10.0 mi NW 8.1 mph - N/A   Scattered Clouds
8:35 PM 30.6 °F 24.7 °F 17.2 °F 58% 29.97 in 10.0 mi West 5.8 mph - N/A   Scattered Clouds
8:55 PM 31.1 °F 27.7 °F 14.7 °F 51% 29.97 in 10.0 mi WNW 3.5 mph 16.1 mph N/A   Scattered Clouds
9:15 PM 31.1 °F - 14.2 °F 50% 29.97 in 10.0 mi Calm Calm - N/A   Mostly Cloudy
9:35 PM 31.8 °F - 12.7 °F 45% 29.97 in 10.0 mi Calm Calm - N/A   Mostly Cloudy
9:55 PM 31.1 °F 25.4 °F 12.7 °F 47% 29.97 in 10.0 mi South 5.8 mph - N/A   Overcast
10:15 PM 31.5 °F 28.1 °F 11.8 °F 44% 29.97 in 10.0 mi South 3.5 mph - N/A   Overcast
10:35 PM 31.1 °F 25.4 °F 11.7 °F 45% 29.98 in 10.0 mi SSW 5.8 mph - N/A   Overcast
10:55 PM 31.6 °F 24.4 °F 11.5 °F 43% 29.98 in 10.0 mi South 8.1 mph - N/A   Overcast
11:15 PM 32.0 °F 27.5 °F 12.2 °F 44% 29.98 in 10.0 mi SSW 4.6 mph - N/A   Overcast
11:35 PM 32.0 °F 26.4 °F 12.4 °F 44% 29.99 in 10.0 mi SSW 5.8 mph - N/A   Overcast
11:55 PM 30.9 °F 24.3 °F 12.0 °F 46% 29.99 in 10.0 mi SSW 6.9 mph - N/A   Overcast